Du Bois, PA

1:48 AM EDT on October 18, 2017 (GMT -0400)
Du Bois-Jefferson County

Weather History for KDUJ - April, 2014

Change the Weather History Date:

Monday, April 14, 2014

  Actual Average Record
Temperature  
Mean Temperature 68 °F 46 °F  
Max Temperature 76 °F 57 °F 79 °F (1967)
Min Temperature 60 °F 36 °F 21 °F (1973)
Degree Days  
Heating Degree Days 0 19  
Month to date heating degree days 216 300  
Since 1 July heating degree days 6314 6258  
Cooling Degree Days 3 0  
Month to date cooling degree days 8 0  
Year to date cooling degree days 8 0  
Growing Degree Days 16 (Base 50)    
Moisture  
Dew Point 52 °F    
Average Humidity 64    
Maximum Humidity 90    
Minimum Humidity 37    
Precipitation  
Precipitation 0.27 in 0.11 in 0.99 in (2002)
Month to date precipitation 2.01 1.64  
Sea Level Pressure  
Sea Level Pressure 29.74 in    
Wind  
Wind Speed 10 mph (SSW)    
Max Wind Speed 35 mph    
Max Gust Speed 45 mph    
Visibility 8 miles    
Events Rain    
T = Trace of Precipitation, MM = Missing Value Source: NWS Daily Summary

Daily Weather History Graph

Daily Weather History Graph

Search for Another Location

Airport or City:

Trip Planner

Search our weather history database for the weather conditions in past years. The results will help you decide how hot, cold, wet, or windy it might be!

Date:

Astronomy

Apr. 14, 2014 Rise Set
Actual Time 6:37 AM EDT 7:54 PM EDT
Civil Twilight 6:09 AM EDT 8:23 PM EDT
Nautical Twilight 5:35 AM EDT 8:57 PM EDT
Astronomical Twilight 4:59 AM EDT 9:33 PM EDT
Moon 7:31 PM EDT (4/14) 6:09 AM EDT (4/14)
Length of Visible Light 14h 13m
Length of Day
13h 16m
Full, 100% of the Moon is Illuminated
Apr 14
Full
Apr 15
Full
Apr 22
Last Quarter
Apr 29
New
May 6
First Quarter

Hourly Weather History & Observations

Time (EDT) Temp. Dew Point Humidity Pressure Visibility Wind Dir Wind Speed Gust Speed Precip Events Conditions
12:56 AM 69.1 °F 43.0 °F 39% 29.82 in 10.0 mi SSE 9.2 mph - N/A   Clear
1:56 AM 66.9 °F 45.0 °F 45% 29.80 in 10.0 mi South 6.9 mph - N/A   Clear
2:56 AM 66.9 °F 46.0 °F 47% 29.78 in 10.0 mi SSE 6.9 mph - N/A   Clear
3:56 AM 66.0 °F 46.9 °F 50% 29.77 in 10.0 mi SSE 4.6 mph - N/A   Clear
4:56 AM 64.9 °F 46.9 °F 52% 29.76 in 10.0 mi SE 4.6 mph - N/A   Clear
5:56 AM 64.0 °F 48.0 °F 56% 29.75 in 10.0 mi Variable 4.6 mph - N/A   Clear
6:56 AM 64.0 °F 48.0 °F 56% 29.75 in 10.0 mi South 4.6 mph - N/A   Clear
7:56 AM 64.9 °F 48.9 °F 56% 29.75 in 10.0 mi South 6.9 mph - N/A   Clear
8:56 AM 68.0 °F 48.9 °F 50% 29.75 in 10.0 mi South 10.4 mph - N/A   Clear
9:56 AM 71.1 °F 48.0 °F 44% 29.74 in 10.0 mi SSW 18.4 mph 27.6 mph N/A   Clear
10:56 AM 71.1 °F 48.0 °F 44% 29.73 in 10.0 mi South 13.8 mph 25.3 mph N/A   Clear
11:56 AM 73.9 °F 48.0 °F 40% 29.72 in 10.0 mi SSW 19.6 mph 29.9 mph N/A   Clear
12:56 PM 73.9 °F 46.9 °F 38% 29.71 in 10.0 mi SW 19.6 mph 34.5 mph N/A   Scattered Clouds
1:56 PM 73.0 °F 46.9 °F 39% 29.69 in 10.0 mi SSW 17.3 mph 29.9 mph N/A   Overcast
2:56 PM 73.0 °F 48.0 °F 41% 29.68 in 10.0 mi SSW 10.4 mph 27.6 mph N/A   Overcast
3:39 PM 62.1 °F 55.9 °F 80% 29.75 in 1.8 mi WSW 25.3 mph 44.9 mph 0.07 in Rain Rain
3:48 PM 60.1 °F 57.0 °F 90% 29.75 in 2.0 mi WSW 16.1 mph 32.2 mph 0.10 in Rain Light Rain
3:56 PM 61.0 °F 57.0 °F 87% 29.73 in 6.0 mi WSW 18.4 mph 27.6 mph 0.11 in Rain Light Rain
4:22 PM 60.1 °F 57.0 °F 90% 29.76 in 2.5 mi SW 13.8 mph 28.8 mph 0.10 in Rain Light Rain
4:32 PM 60.1 °F 57.0 °F 90% 29.76 in 5.0 mi SW 17.3 mph 26.5 mph 0.12 in Rain Light Rain
4:56 PM 61.0 °F 57.0 °F 87% 29.73 in 10.0 mi SW 9.2 mph - 0.12 in   Overcast
5:56 PM 61.0 °F 57.0 °F 87% 29.73 in 10.0 mi SSW 10.4 mph - 0.03 in   Overcast
6:52 PM 60.8 °F 55.4 °F 82% 29.75 in 5.0 mi SW 17.3 mph 29.9 mph 0.00 in Rain Light Rain
6:56 PM 61.0 °F 55.9 °F 83% 29.73 in 5.0 mi SW 13.8 mph 29.9 mph 0.00 in Rain Light Rain
7:20 PM 61.0 °F 55.9 °F 83% 29.74 in 10.0 mi SSW 10.4 mph - 0.01 in   Overcast
7:56 PM 60.1 °F 55.9 °F 86% 29.71 in 10.0 mi SSW 9.2 mph 18.4 mph 0.01 in   Overcast
8:56 PM 60.1 °F 55.9 °F 86% 29.71 in 10.0 mi South 8.1 mph - N/A   Overcast
9:56 PM 60.1 °F 55.9 °F 86% 29.71 in 10.0 mi South 8.1 mph - N/A   Overcast
10:56 PM 60.1 °F 55.9 °F 86% 29.68 in 10.0 mi SSE 5.8 mph - N/A   Overcast